General Aviation Weather

Text Reports

Enter one or more of the following location identifiers separated by a space:

Zip Code, Four-Character ICAO or Three-Character IATA airport codes.

METAR - Aviation Routine Weather Report
KNDZ - Milton, Florida
Updated at 12:56 PM GMT on July 03, 2015 (7:56 AM CDT):
METAR KNDZ 031256Z AUTO VRB03KT 10SM CLR 28/25 A3007 RMK AO2 SLP168 T02780250 $
TAF - Terminal Area Forecast
KNDZ - Milton, Florida
Updated at 12:56 PM GMT on July 03, 2015 (7:56 AM CDT):
No TAF is currently available for this location.
Decoded:
No decoded TAF is available.
PIREP - Pilot Weather Report
KNDZ - Milton, Florida
Updated at 12:56 PM GMT on July 03, 2015 (7:56 AM CDT):
No PIREP is currently available for this location.
AIRMET - Airmens Meteorological Information
KNDZ - Milton, Florida
Updated at 12:56 PM GMT on July 03, 2015 (7:56 AM CDT):
No AIRMET is currently available for this location.
SIGMET - Significant Meteorological Information
KNDZ - Milton, Florida
Updated at 12:56 PM GMT on July 03, 2015 (7:56 AM CDT):
No SIGMET is currently available for this location.
NOTAM - Notice to Airmen
KNDZ - Milton, Florida
Updated at 12:56 PM GMT on July 03, 2015 (7:56 AM CDT):
No NOTAM is currently available for this location.
Forecast Area
KNDZ - Milton, Florida
Updated at 12:56 PM GMT on July 03, 2015 (7:56 AM CDT):
No NOTAM is currently available for this location.
Aviation Weather Maps